Location: Newark
(34.1333°N, 7.9667°W)
Time: 02:21:05
(UTC+00:00)

Transit 2A - Pass Details

Date: 15 June 2021
Orbit: 598 x 960 km, 66.7° (Epoch: 30 July)

Event Time Altitude Azimuth Distance (km) Brightness Sun altitude
Rises 16:28:06 0° 169° (S) 2,917 8.9 37.9°
Reaches altitude 10° 16:31:01 10° 150° (SSE) 1,973 8.0 37.3°
Maximum altitude 16:33:57 18° 108° (ESE) 1,516 7.3 36.7°
Drops below altitude 10° 16:36:49 10° 66° (ENE) 1,938 7.8 36.1°
Sets 16:39:39 0° 46° (NE) 2,844 8.6 35.6°
